Вернуться в каталог

FENGYUN 1C DEB

АктивенSSO
NORAD 30673·DEBRIS·🇨🇳 China

Запущен May 10, 1999 с Taiyuan Satellite Launch Center

Loading…

Ближайшие Пролёты (ближайшие 24 часа)

TLE

СвежийSource: Space-Track

Эпоха: Sep 14, 2026, 09:01 UTC

1 30673U 99025AQF 26257.37626309  .00000246  00000-0  18174-3 0  9998
2 30673  98.8826 305.6446 0052670  95.0465 328.6839 14.03576662  3988

Отслеживайте FENGYUN 1C DEB в реальном времени с AllMySat

Download on the App Store